sat.trackr.live / text

‹ back to catalog

STARLINK-3114

NORAD 49426 · 2021-104U

PAYLOAD ACTIVE UNKNOWN

§ Identity

Operator
Country
US
Launch date
2021-11-13
Launch site
AFETR
Launch vehicle
Mass (kg)
RCS (m²)

Purposes: comms

External: N2YO · Heavens-Above · Gunter

§ Orbital elements

Epoch: 2026-09-20T02:39:52.674048Z

Period
93.85 min
Inclination
53.1605°
Eccentricity
0.0001193
Mean motion
15.34383361 rev/d
Perigee alt
461.9 km
Apogee alt
463.6 km
Semi-major
6,840.9 km
B*
3.2453e-5
RAAN
63.1930°
Arg perigee
92.2739°
Mean anomaly
267.8400°
Rev number
26,815

§ Raw data

STARLINK-31141 49426U 21104U   26263.11102632  .00000720  00000+0  32453-4 0  99972 49426  53.1605  63.1930 0001193  92.2739 267.8400 15.34383361268151

JSON: /api/v1/satellites/49426 · /tle

For live sub-satellite position, see the globe view (requires WebGL).

§ Visibility from observer

Set your observer location to see the next 7 days of passes ≥ 10°. The values pass through the URL so the page stays shareable.

No JS? Fill the form by hand. The geolocation button needs JavaScript.